Fargo, ND

9:58 PM CDT on October 18, 2019 (GMT -0500)
Hector International

Weather History for KFAR - August, 2019

Change the Weather History Date:

Tuesday, August 27, 2019

  Actual Average Record
Temperature  
Mean Temperature 60 °F 67 °F  
Max Temperature 64 °F 79 °F 100 °F (1984)
Min Temperature 55 °F 55 °F 33 °F (1982)
Degree Days  
Heating Degree Days 5 2  
Month to date heating degree days 24 27  
Since 1 June heating degree days 88 116  
Since 1 July heating degree days 30 43  
Cooling Degree Days 0 4  
Month to date cooling degree days 93 153  
Year to date cooling degree days 471 493  
Since 1 June cooling degree days 461 462  
Growing Degree Days 10 (Base 50)    
Moisture  
Dew Point 54 °F    
Average Humidity 82    
Maximum Humidity 94    
Minimum Humidity 67    
Precipitation  
Precipitation 0.29 in 0.10 in 0.92 in (2007)
Month to date precipitation 4.02 2.20  
Year to date precipitation 20.36 15.67  
Snow  
Snow 0.00 in 0.00 in 0.00 in ()
Month to date snowfall 0.0 0.0  
Since 1 June snowfall 0.0 0.0  
Since 1 July snowfall 0.0 0.0  
Snow Depth 0.00 in    
Sea Level Pressure  
Sea Level Pressure 29.75 in    
Wind  
Wind Speed 13 mph ()    
Max Wind Speed 29 mph    
Max Gust Speed 37 mph    
Visibility 8.7 miles    
Events Rain    
T = Trace of Precipitation, MM = Missing Value Source: Averaged Metar Reports

Daily Weather History Graph

Daily Weather History Graph

Search for Another Location

Airport or City:

Astronomy

Aug. 27, 2019 Rise Set
Actual Time 6:40 AM CDT 8:16 PM CDT
Civil Twilight 6:08 AM CDT 8:48 PM CDT
Nautical Twilight 5:29 AM CDT 9:27 PM CDT
Astronomical Twilight 4:46 AM CDT 10:09 PM CDT
Moon 2:51 AM CDT (8/27) 6:51 PM CDT (8/27)
Length of Visible Light 14h 40m
Length of Day
13h 36m
Waning Crescent, 11% of the Moon is Illuminated
Aug 27
Waning Crescent
Aug 30
New
Sep 5
First Quarter
Sep 13
Full
Sep 21
Last Quarter

Hourly Weather History & Observations

Time (CDT) Temp. Dew Point Humidity Pressure Visibility Wind Dir Wind Speed Gust Speed Precip Events Conditions
12:53 AM 57.9 °F 54.0 °F 87% 29.72 in 10.0 mi West 10.4 mph - N/A   Clear
1:53 AM 59.0 °F 54.0 °F 83% 29.71 in 10.0 mi West 12.7 mph - N/A   Scattered Clouds
2:53 AM 57.9 °F 54.0 °F 87% 29.70 in 10.0 mi West 11.5 mph - N/A   Mostly Cloudy
3:53 AM 57.9 °F 53.1 °F 84% 29.70 in 10.0 mi West 10.4 mph - N/A   Partly Cloudy
4:53 AM 57.0 °F 52.0 °F 83% 29.71 in 10.0 mi West 12.7 mph - N/A   Partly Cloudy
5:53 AM 55.9 °F 52.0 °F 87% 29.71 in 10.0 mi West 12.7 mph - N/A   Clear
6:53 AM 55.0 °F 52.0 °F 89% 29.72 in 10.0 mi West 11.5 mph - N/A   Clear
7:53 AM 55.9 °F 51.1 °F 84% 29.73 in 10.0 mi West 13.8 mph - N/A   Clear
8:53 AM 59.0 °F 51.1 °F 75% 29.73 in 10.0 mi West 16.1 mph 24.2 mph N/A   Clear
10:53 AM 60.1 °F 51.1 °F 72% 29.73 in 10.0 mi West 21.9 mph 29.9 mph N/A   Overcast
11:53 AM 61.0 °F 52.0 °F 72% 29.73 in 10.0 mi West 17.3 mph 25.3 mph N/A   Overcast
12:53 PM 62.1 °F 52.0 °F 70% 29.72 in 10.0 mi West 23.0 mph 34.5 mph N/A   Overcast
1:53 PM 62.1 °F 53.1 °F 72% 29.73 in 10.0 mi West 23.0 mph 32.2 mph N/A   Overcast
2:05 PM 61.0 °F 52.0 °F 72% 29.72 in 10.0 mi West 23.0 mph 35.7 mph N/A   Overcast
2:21 PM 62.1 °F 53.1 °F 72% 29.73 in 10.0 mi West 23.0 mph 36.8 mph N/A   Overcast
2:53 PM 64.0 °F 54.0 °F 70% 29.73 in 10.0 mi West 21.9 mph 29.9 mph 0.00 in   Mostly Cloudy
3:53 PM 62.1 °F 57.0 °F 84% 29.73 in 10.0 mi WNW 12.7 mph - 0.03 in   Mostly Cloudy
4:53 PM 61.0 °F 55.0 °F 81% 29.75 in 9.0 mi WNW 24.2 mph 34.5 mph 0.00 in Rain Light Rain
5:02 PM 59.0 °F 55.0 °F 87% 29.76 in 2.5 mi WNW 20.7 mph 34.5 mph 0.03 in Rain Rain
5:10 PM 59.0 °F 55.9 °F 90% 29.76 in 10.0 mi WNW 18.4 mph 27.6 mph 0.03 in Rain Light Rain
5:53 PM 60.1 °F 55.9 °F 86% 29.76 in 10.0 mi WNW 9.2 mph - 0.04 in   Overcast
6:32 PM 59.0 °F 55.9 °F 90% 29.76 in 2.0 mi NW 17.3 mph 23.0 mph 0.01 in Rain Heavy Rain
6:39 PM 57.9 °F 54.0 °F 87% 29.76 in 0.8 mi NW 21.9 mph 34.5 mph 0.08 in Rain Heavy Rain
6:48 PM 57.2 °F 55.4 °F 94% 29.76 in 2.0 mi WNW 15.0 mph - 0.22 in Rain Light Rain
6:49 PM 57.9 °F 55.0 °F 90% 29.77 in 2.5 mi WNW 15.0 mph - 0.22 in Rain Light Rain
6:56 PM 59.0 °F 55.0 °F 87% 29.76 in 10.0 mi WNW 15.0 mph - 0.00 in   Overcast
7:09 PM 60.1 °F 55.9 °F 86% 29.75 in 10.0 mi WNW 11.5 mph - 0.00 in   Mostly Cloudy
7:53 PM 60.1 °F 55.0 °F 83% 29.78 in 10.0 mi WNW 10.4 mph - 0.00 in   Mostly Cloudy
8:53 PM 57.9 °F 54.0 °F 87% 29.80 in 10.0 mi WNW 6.9 mph - N/A   Overcast
9:53 PM 57.9 °F 51.1 °F 78% 29.82 in 10.0 mi WNW 10.4 mph - 0.00 in   Overcast
10:53 PM 57.0 °F 52.0 °F 83% 29.83 in 10.0 mi West 8.1 mph - N/A   Overcast
11:53 PM 57.0 °F 52.0 °F 83% 29.83 in 10.0 mi West 10.4 mph - N/A   Overcast